Location: Rounton
(54.4000°N, 1.3500°W)
Time: 12:20:58
(UTC+01:00)

Vanguard 1 - Pass Details

Date: 02 March 2024
Orbit: 653 x 3825 km, 34.2° (Epoch: 22 April)

Event Time Altitude Azimuth Distance (km) Brightness Sun altitude
Rises 19:03:31 0° 228° (SW) 4,857 14.3 -12.2°
Reaches altitude 10° 19:06:41 10° 218° (SW) 4,247 13.7 -12.7°
Maximum altitude 19:17:02 32° 161° (SSE) 3,835 12.8 -14.2°
Enters shadow 19:29:02 16° 115° (ESE) 5,765 13.3 -15.9°
